FW2584 Weather Reports


time (UTC)temp
C
wind
direction
speed
KPH
gust
KPH
rain 1hr
cm
rain 24hr
cm
rain mn
cm
humidity
%
barometer
mb
20260508193522 23 0 0.0 4.8 0.00 0.00 0.00 45 1015.4
20260508193052 23 252 0.0 6.4 0.00 0.00 0.00 42 1015.3
20260508192522 23 0 0.0 6.4 0.00 0.00 0.00 43 1015.4
20260508192022 23 249 0.0 6.4 0.00 0.00 0.00 46 1015.4
20260508191540 23 0 0.0 6.4 0.00 0.00 0.00 42 1015.5
20260508191022 23 0 0.0 1.6 0.00 0.00 0.00 50 1015.6
20260508190523 22 0 0.0 1.6 0.00 0.00 0.00 46 1015.6
20260508190037 22 0 0.0 1.6 0.00 0.00 0.00 47 1015.6
20260508185522 22 0 0.0 1.6 0.00 0.00 0.00 42 1015.6
20260508185023 22 0 0.0 1.6 0.00 0.00 0.00 46 1015.7
20260508184535 22 0 0.0 1.6 0.00 0.00 0.00 45 1015.9
20260508184022 22 0 0.0 1.6 0.00 0.00 0.00 47 1015.8
20260508183527 22 0 0.0 1.6 0.00 0.00 0.00 45 1015.7
20260508183040 21 0 0.0 8.0 0.00 0.00 0.00 46 1015.7
20260508182523 21 0 0.0 8.0 0.00 0.00 0.00 44 1015.8
20260508182022 21 250 1.6 8.0 0.00 0.00 0.00 43 1015.9
20260508181549 21 0 0.0 3.2 0.00 0.00 0.00 45 1016.0
20260508181023 21 0 0.0 3.2 0.00 0.00 0.00 49 1016.1
20260508180520 22 240 0.0 4.8 0.00 0.00 0.00 44 1016.2
20260508180041 22 0 0.0 4.8 0.00 0.00 0.00 47 1016.4
20260508175522 21 0 0.0 4.8 0.00 0.00 0.00 42 1016.6
20260508175020 21 0 0.0 4.8 0.00 0.00 0.00 48 1016.5
20260508174537 21 0 0.0 8.0 0.00 0.00 0.00 47 1016.4
20260508174020 21 0 0.0 8.0 0.00 0.00 0.00 47 1016.4
20260508173521 21 85 0.0 6.4 0.00 0.00 0.00 45 1016.5
20260508173035 21 0 0.0 6.4 0.00 0.00 0.00 48 1016.7
20260508172522 21 0 0.0 4.8 0.00 0.00 0.00 47 1016.9
20260508172027 21 0 0.0 3.2 0.00 0.00 0.00 46 1016.9
20260508171541 21 0 0.0 3.2 0.00 0.00 0.00 49 1017.0
20260508171022 21 0 0.0 4.8 0.00 0.00 0.00 48 1017.0
20260508170521 20 0 0.0 6.4 0.00 0.00 0.00 52 1017.0
20260508170042 20 261 0.0 6.4 0.00 0.00 0.00 46 1017.1
20260508165522 21 0 0.0 6.4 0.00 0.13 0.00 49 1017.4
20260508165022 20 0 0.0 8.0 0.00 0.13 0.00 49 1017.3
20260508164540 20 0 0.0 8.0 0.00 0.13 0.00 49 1017.2
20260508164025 20 0 0.0 6.4 0.00 0.13 0.00 47 1017.4
20260508163521 20 0 0.0 6.4 0.00 0.13 0.00 51 1017.4
20260508163038 20 0 0.0 4.8 0.00 0.13 0.00 50 1017.6
20260508162522 20 0 0.0 3.2 0.00 0.13 0.00 52 1017.6
20260508162022 20 0 0.0 9.7 0.00 0.13 0.00 55 1017.8
20260508161533 20 0 0.0 9.7 0.00 0.13 0.00 59 1017.8
20260508161023 20 0 0.0 6.4 0.00 0.13 0.00 54 1017.9
20260508160522 20 16 0.0 1.6 0.00 0.13 0.00 51 1017.9
20260508160057 20 0 0.0 9.7 0.00 0.13 0.00 55 1017.9
20260508155524 20 0 1.6 9.7 0.00 1.22 0.00 58 1017.9
20260508155022 20 0 0.0 8.0 0.00 1.22 0.00 57 1017.9
20260508154538 19 0 0.0 8.0 0.00 1.22 0.00 56 1017.8
20260508154025 19 0 0.0 8.0 0.00 1.22 0.00 58 1017.9
20260508153525 18 0 0.0 8.0 0.00 1.22 0.00 57 1017.8
20260508153045 18 0 1.6 8.0 0.00 1.22 0.00 59 1017.8
20260508152525 19 350 0.0 11.3 0.00 1.22 0.00 62 1017.7
20260508152023 19 0 0.0 11.3 0.00 1.22 0.00 64 1017.8
20260508151533 18 0 0.0 1.6 0.00 1.22 0.00 70 1017.9
20260508151023 18 0 0.0 1.6 0.00 1.22 0.00 69 1017.9
20260508150522 18 0 0.0 6.4 0.00 1.22 0.00 71 1018.0
20260508150037 18 0 0.0 6.4 0.00 1.22 0.00 70 1018.1
20260508145522 17 0 0.0 4.8 0.00 2.01 0.00 70 1018.1
20260508145025 17 0 0.0 1.6 0.00 2.01 0.00 71 1018.1
20260508144538 17 0 0.0 4.8 0.00 2.01 0.00 72 1018.1
20260508144021 17 0 0.0 4.8 0.00 2.01 0.00 77 1018.1
20260508143522 17 0 0.0 6.4 0.00 2.01 0.00 73 1018.1
20260508143046 16 0 0.0 6.4 0.00 2.01 0.00 76 1018.1
20260508142524 16 0 0.0 6.4 0.00 2.01 0.00 79 1018.1
20260508142022 16 0 0.0 6.4 0.00 2.01 0.00 77 1018.1
20260508141547 16 0 0.0 4.8 0.00 2.01 0.00 81 1018.1
20260508141022 15 0 0.0 6.4 0.00 2.01 0.00 81 1018.1
20260508140522 15 0 0.0 6.4 0.00 2.01 0.00 81 1018.0
20260508140038 15 0 0.0 6.4 0.00 2.01 0.00 81 1017.9
20260508135522 15 0 0.0 3.2 0.00 2.54 0.00 83 1018.0
20260508135022 15 0 0.0 3.2 0.00 2.54 0.00 86 1017.9
20260508134536 15 0 0.0 0.0 0.00 2.54 0.00 87 1017.9
20260508134022 15 0 0.0 4.8 0.00 2.54 0.00 88 1017.9
20260508133539 15 0 0.0 4.8 0.00 2.54 0.00 88 1017.8
20260508133047 14 0 0.0 1.6 0.00 2.54 0.00 88 1018.0
20260508132523 14 0 0.0 0.0 0.00 2.54 0.00 90 1018.0
20260508132020 14 0 0.0 0.0 0.00 2.54 0.00 91 1017.9
20260508131539 13 0 0.0 0.0 0.00 2.54 0.00 91 1017.8
20260508131023 13 0 0.0 1.6 0.00 2.54 0.00 93 1018.0
20260508130523 13 0 0.0 1.6 0.00 2.54 0.00 93 1017.7
20260508130034 13 0 0.0 0.0 0.00 2.54 0.00 94 1017.7
20260508125527 13 0 0.0 8.0 0.00 2.54 0.00 95 1017.6
20260508125022 13 0 0.0 8.0 0.00 2.54 0.00 96 1017.6
20260508124534 12 0 0.0 0.0 0.00 2.54 0.00 97 1017.6
20260508124025 12 0 0.0 0.0 0.00 2.54 0.00 98 1017.6
20260508123520 12 0 0.0 0.0 0.00 2.54 0.00 98 1017.3
20260508123035 12 0 0.0 0.0 0.00 2.54 0.00 99 1017.3
20260508122523 12 0 0.0 0.0 0.00 2.54 0.00 99 1017.4
20260508122020 12 0 0.0 0.0 0.00 2.54 0.00 99 1017.4
20260508121554 12 0 0.0 0.0 0.00 2.54 0.00 99 1017.2
20260508121021 11 0 0.0 3.2 0.00 2.54 0.00 99 1017.2
20260508120523 11 0 0.0 3.2 0.00 2.54 0.00 99 1017.1
20260508120039 11 0 0.0 0.0 0.00 2.54 0.00 99 1017.0
20260508115523 12 0 0.0 0.0 0.00 2.72 0.00 99 1016.9
20260508115023 11 0 0.0 0.0 0.00 2.72 0.00 99 1016.8
20260508114537 11 0 0.0 0.0 0.00 2.72 0.00 99 1016.7
20260508114023 11 0 0.0 0.0 0.00 2.72 0.00 99 1016.6
20260508113528 11 0 0.0 0.0 0.00 2.72 0.00 99 1016.4
20260508113035 11 0 0.0 0.0 0.00 2.72 0.00 99 1016.4
20260508112522 11 0 0.0 0.0 0.00 2.72 0.00 99 1016.3
20260508112023 11 0 0.0 0.0 0.00 2.72 0.00 99 1016.3
20260508111535 11 0 0.0 0.0 0.00 2.72 0.00 99 1016.1
20260508111022 11 0 0.0 0.0 0.00 2.72 0.00 99 1016.1
20260508110522 11 0 0.0 0.0 0.00 2.72 0.00 99 1016.0
20260508110045 11 0 0.0 0.0 0.00 2.72 0.00 99 1015.9
20260508105523 11 0 0.0 0.0 0.00 2.92 0.00 99 1015.8
20260508105023 11 0 0.0 0.0 0.00 2.92 0.00 99 1015.7
20260508104533 11 0 0.0 0.0 0.00 2.92 0.00 99 1015.6
20260508104020 11 0 0.0 0.0 0.00 2.92 0.00 99 1015.6
20260508103523 11 0 0.0 0.0 0.00 2.92 0.00 99 1015.7
20260508103033 11 0 0.0 0.0 0.00 2.92 0.00 99 1015.5
20260508102523 12 0 0.0 0.0 0.00 2.92 0.00 99 1015.5
20260508102022 12 0 0.0 0.0 0.00 2.92 0.00 99 1015.4
20260508101538 12 0 0.0 0.0 0.00 2.92 0.00 99 1015.5
20260508101025 12 0 0.0 0.0 0.00 2.92 0.00 99 1015.4
20260508100523 12 0 0.0 0.0 0.00 2.92 0.00 99 1015.4
20260508100036 12 0 0.0 0.0 0.00 2.92 0.00 99 1015.4
20260508095525 12 0 0.0 0.0 0.00 3.17 0.00 99 1015.2
20260508095021 12 0 0.0 0.0 0.00 3.17 0.00 99 1015.2
20260508094537 11 0 0.0 0.0 0.00 3.17 0.00 98 1015.3
20260508094021 11 0 0.0 0.0 0.00 3.17 0.00 98 1015.2
20260508093522 11 0 0.0 0.0 0.00 3.17 0.00 98 1015.1
20260508093036 11 0 0.0 0.0 0.00 3.17 0.00 98 1015.1
20260508092522 11 0 0.0 0.0 0.00 3.17 0.00 98 1015.0
20260508092023 11 0 0.0 0.0 0.00 3.17 0.00 98 1014.9
20260508091540 11 0 0.0 0.0 0.00 3.17 0.00 98 1014.8
20260508091020 11 0 0.0 0.0 0.00 3.17 0.00 98 1014.8
20260508090523 11 0 0.0 0.0 0.00 3.17 0.00 98 1014.7
20260508090036 11 0 0.0 0.0 0.00 3.17 0.00 98 1014.7
20260508085524 11 0 0.0 0.0 0.00 3.28 0.00 98 1014.6
20260508085024 11 0 0.0 0.0 0.00 3.28 0.00 98 1014.6
20260508084535 11 0 0.0 0.0 0.00 3.28 0.00 98 1014.3
20260508084020 11 0 0.0 0.0 0.00 3.28 0.00 98 1014.3
20260508083521 11 0 0.0 0.0 0.00 3.28 0.00 98 1014.2
20260508083114 11 0 0.0 0.0 0.00 3.28 0.00 98 1014.3
20260508082523 12 0 0.0 0.0 0.00 3.28 0.00 98 1014.1
20260508082021 12 0 0.0 0.0 0.00 3.28 0.00 98 1014.0
20260508081541 12 0 0.0 0.0 0.00 3.28 0.00 98 1013.9
20260508081022 12 0 0.0 0.0 0.00 3.28 0.00 98 1014.0
20260508080523 12 0 0.0 0.0 0.00 3.28 0.00 98 1014.0
20260508080036 12 0 0.0 0.0 0.00 3.28 0.00 98 1013.9
20260508075523 12 0 0.0 0.0 0.00 3.28 0.00 98 1013.8
20260508075021 12 0 0.0 0.0 0.00 3.28 0.00 98 1013.8
20260508074535 12 0 0.0 0.0 0.00 3.28 0.00 98 1013.7
20260508074023 12 0 0.0 0.0 0.00 3.28 0.00 98 1013.9
20260508073521 12 0 0.0 0.0 0.00 3.28 0.00 97 1013.8
20260508073040 12 0 0.0 0.0 0.00 3.28 0.00 98 1013.7
20260508072526 12 0 0.0 0.0 0.00 3.28 0.00 98 1013.6
20260508072023 12 0 0.0 0.0 0.00 3.28 0.00 98 1013.6
20260508071543 13 0 0.0 0.0 0.00 3.28 0.00 98 1013.6
20260508071020 13 0 0.0 0.0 0.00 3.28 0.00 98 1013.5
20260508070525 13 0 0.0 0.0 0.00 3.28 0.00 98 1013.5
20260508070039 13 0 0.0 0.0 0.00 3.28 0.00 97 1013.6
20260508065525 13 0 0.0 0.0 0.00 3.28 0.00 97 1013.7
20260508065021 13 0 0.0 0.0 0.00 3.28 0.00 98 1013.6
20260508064546 13 0 0.0 0.0 0.00 3.28 0.00 98 1013.7
20260508064021 13 0 0.0 0.0 0.00 3.28 0.00 98 1013.6
20260508063521 13 0 0.0 0.0 0.00 3.28 0.00 98 1013.7
20260508063039 13 0 0.0 0.0 0.00 3.28 0.00 98 1013.8
20260508062523 13 0 0.0 0.0 0.00 3.28 0.00 98 1013.7
20260508062023 13 0 0.0 0.0 0.00 3.28 0.00 98 1013.6
20260508061543 13 0 0.0 0.0 0.00 3.28 0.00 98 1013.6
20260508061023 13 0 0.0 0.0 0.00 3.28 0.00 98 1013.8
20260508060521 13 0 0.0 0.0 0.00 3.28 0.00 98 1013.8
20260508060037 13 0 0.0 0.0 0.00 3.28 0.00 97 1013.7
20260508055523 13 0 0.0 0.0 0.00 3.28 0.00 97 1013.7
20260508055023 13 0 0.0 0.0 0.00 3.28 0.00 97 1013.8
20260508054533 13 0 0.0 0.0 0.00 3.28 0.00 97 1013.8
20260508054023 13 0 0.0 0.0 0.00 3.28 0.00 97 1013.7
20260508053521 13 0 0.0 0.0 0.00 3.28 0.00 97 1013.7
20260508053035 13 0 0.0 0.0 0.00 3.28 0.00 97 1014.0
20260508052525 13 0 0.0 0.0 0.00 3.28 0.00 97 1013.9
20260508052023 13 0 0.0 0.0 0.00 3.28 0.00 96 1013.8
20260508051534 13 0 0.0 0.0 0.00 3.28 0.00 97 1013.7
20260508051023 13 0 0.0 0.0 0.00 3.28 0.00 97 1013.7
20260508050522 13 0 0.0 0.0 0.00 3.28 0.00 96 1013.7
20260508050044 13 0 0.0 0.0 0.00 3.28 0.00 96 1013.6
20260508045520 13 0 0.0 0.0 0.00 3.28 0.00 96 1013.7
20260508045021 13 0 0.0 0.0 0.00 3.28 0.00 96 1013.6
20260508044536 13 0 0.0 0.0 0.00 3.28 0.00 96 1013.5
20260508044022 13 0 0.0 0.0 0.00 3.28 0.00 96 1013.4
20260508043526 13 0 0.0 0.0 0.00 3.28 0.00 96 1013.5
20260508043036 13 0 0.0 0.0 0.00 3.28 0.00 96 1013.4
20260508042525 13 0 0.0 0.0 0.00 3.28 0.00 96 1013.3
20260508042024 13 0 0.0 0.0 0.00 3.28 0.00 96 1013.4
20260508041535 13 0 0.0 0.0 0.00 3.28 0.00 95 1013.4
20260508041020 13 0 0.0 0.0 0.00 3.28 0.00 95 1013.3
20260508040521 13 0 0.0 0.0 0.00 3.28 0.00 95 1013.4
20260508040039 13 0 0.0 0.0 0.00 3.28 0.00 95 1013.4
20260508035523 13 0 0.0 0.0 0.00 3.28 3.28 95 1013.4
20260508035020 13 0 0.0 0.0 0.00 3.28 3.28 95 1013.4
20260508034536 13 0 0.0 0.0 0.00 3.28 3.28 95 1013.5
20260508034020 13 0 0.0 0.0 0.00 3.28 3.28 95 1013.4
20260508033521 13 0 0.0 3.2 0.00 3.28 3.28 95 1013.5
20260508033034 13 0 0.0 3.2 0.00 3.28 3.28 95 1013.3
20260508032523 13 0 0.0 3.2 0.00 3.28 3.28 95 1013.2
20260508032022 13 0 0.0 0.0 0.00 3.28 3.28 95 1013.2
20260508031533 13 0 0.0 3.2 0.00 3.28 3.28 95 1013.1
20260508031023 13 0 0.0 3.2 0.00 3.28 3.28 95 1012.9
20260508030520 13 0 0.0 3.2 0.00 3.28 3.28 94 1013.0
20260508030035 13 0 0.0 1.6 0.00 3.28 3.28 94 1012.8
20260508025524 13 0 0.0 0.0 0.00 3.28 3.28 94 1012.9
20260508025025 13 0 0.0 3.2 0.00 3.28 3.28 94 1013.0
20260508024548 13 0 0.0 3.2 0.00 3.28 3.28 94 1012.9
20260508024023 14 0 0.0 3.2 0.00 3.28 3.28 94 1012.7
20260508023523 14 0 0.0 3.2 0.00 3.28 3.28 94 1012.4
20260508023037 14 0 0.0 3.2 0.00 3.28 3.28 93 1012.6
20260508022520 14 0 0.0 3.2 0.00 3.28 3.28 93 1012.3
20260508022022 15 0 0.0 0.0 0.00 3.28 3.28 93 1012.3
20260508021535 15 0 0.0 0.0 0.00 3.28 3.28 93 1012.3
20260508021025 15 0 0.0 0.0 0.00 3.28 3.28 93 1012.1
20260508020519 15 0 0.0 3.2 0.00 3.28 3.28 92 1012.2
20260508020044 15 0 0.0 6.4 0.00 3.28 3.28 92 1012.1
20260508015522 15 0 0.0 6.4 0.00 3.28 3.28 91 1012.2
20260508015023 15 0 1.6 6.4 0.00 3.28 3.28 91 1012.3
20260508014540 15 234 0.0 12.9 0.00 3.28 3.28 91 1012.2
20260508014023 15 0 1.6 12.9 0.00 3.28 3.28 90 1012.4
20260508013526 15 0 0.0 8.0 0.00 3.28 3.28 91 1011.8
20260508013039 15 0 0.0 9.7 0.00 3.28 3.28 91 1011.4
20260508012525 15 158 1.6 9.7 0.00 3.28 3.28 92 1010.9
20260508012024 16 245 0.0 1.6 0.00 3.28 3.28 93 1011.0
20260508011547 16 0 0.0 3.2 0.00 3.28 3.28 93 1010.6
20260508011023 16 0 0.0 4.8 0.00 3.28 3.28 93 1010.6
20260508010524 16 0 0.0 8.0 0.00 3.28 3.28 93 1010.6
20260508010034 16 0 1.6 20.9 0.00 3.28 3.28 92 1010.8
20260508005532 16 144 4.8 20.9 0.00 3.28 3.28 92 1010.7
20260508005023 16 0 0.0 9.7 0.00 3.28 3.28 93 1010.6
20260508004550 16 0 1.6 12.9 0.00 3.28 3.28 93 1009.3
20260508004021 17 205 1.6 16.1 0.00 3.28 3.28 92 1009.7
20260508003523 17 0 1.6 16.1 0.00 3.28 3.28 92 1009.6
20260508003042 17 0 0.0 6.4 0.00 3.28 3.28 92 1009.3
20260508002522 17 0 0.0 6.4 0.00 3.28 3.28 92 1009.1
20260508002023 17 0 0.0 6.4 0.00 3.28 3.28 92 1008.9
20260508001541 18 0 0.0 3.2 0.00 3.28 3.28 90 1008.9
20260508001023 18 0 0.0 3.2 0.00 3.28 3.28 90 1008.7
20260508000528 18 0 0.0 4.8 0.00 3.28 3.28 90 1008.7
20260508000037 19 0 0.0 9.7 0.00 3.28 3.28 88 1008.7
20260507235523 20 0 0.0 11.3 0.00 3.28 3.28 87 1008.1
20260507235027 21 182 1.6 11.3 0.00 3.28 3.28 86 1008.0
20260507234533 22 0 0.0 4.8 0.00 3.28 3.28 88 1007.9
20260507234022 22 0 0.0 0.0 0.00 3.28 3.28 92 1007.6
20260507233526 23 0 0.0 0.0 0.00 3.28 3.28 91 1007.4
20260507233035 23 0 0.0 0.0 0.00 3.28 3.28 90 1007.4
20260507232522 23 0 0.0 0.0 0.00 3.28 3.28 89 1007.2
20260507232023 24 0 0.0 0.0 0.00 3.28 3.28 87 1007.0
20260507231539 24 0 0.0 0.0 0.00 3.28 3.28 86 1006.9
20260507231023 24 0 0.0 0.0 0.00 3.28 3.28 86 1006.9
20260507230527 24 0 0.0 0.0 0.00 3.28 3.28 86 1007.0
20260507230040 24 0 0.0 4.8 0.00 3.28 3.28 86 1007.0
20260507225523 25 0 0.0 4.8 0.00 3.28 3.28 84 1007.0
20260507225023 25 0 0.0 6.4 0.00 3.28 3.28 84 1006.9
20260507224542 25 0 0.0 6.4 0.00 3.28 3.28 83 1006.9
20260507224023 25 0 0.0 6.4 0.00 3.28 3.28 84 1006.6
20260507223526 25 0 0.0 4.8 0.00 3.28 3.28 83 1006.6
20260507223035 25 0 0.0 4.8 0.00 3.28 3.28 83 1006.8
20260507222522 25 0 0.0 3.2 0.00 3.28 3.28 84 1006.7
20260507222021 25 0 0.0 1.6 0.00 3.28 3.28 85 1006.8
20260507221541 25 0 0.0 1.6 0.00 3.28 3.28 85 1006.7
20260507221022 25 0 0.0 1.6 0.00 3.28 3.28 84 1006.5
20260507220521 25 0 0.0 1.6 0.00 3.28 3.28 84 1006.7
20260507220034 25 0 0.0 1.6 0.00 3.28 3.28 82 1006.7
20260507215525 25 0 0.0 4.8 0.00 3.28 3.28 83 1006.7
20260507215024 25 0 0.0 6.4 0.00 3.28 3.28 81 1006.8
20260507214537 25 0 0.0 6.4 0.00 3.28 3.28 81 1007.0
20260507214023 25 0 0.0 6.4 0.00 3.28 3.28 82 1007.2
20260507213523 25 0 0.0 1.6 0.00 3.28 3.28 82 1007.1
20260507213038 25 0 0.0 6.4 0.00 3.28 3.28 82 1007.1
20260507212521 25 0 0.0 6.4 0.00 3.28 3.28 83 1007.1
20260507212024 25 249 0.0 6.4 0.00 3.28 3.28 83 1007.0
20260507211537 25 0 0.0 8.0 0.00 3.28 3.28 83 1006.9
20260507211022 25 0 0.0 8.0 0.00 3.28 3.28 82 1006.9
20260507210526 25 0 0.0 9.7 0.00 3.28 3.28 83 1007.0
20260507210036 25 0 0.0 9.7 0.00 3.28 3.28 84 1007.2
20260507205523 25 0 1.6 9.7 0.00 3.28 3.28 85 1007.1
20260507205023 24 0 0.0 8.0 0.00 3.28 3.28 89 1007.1
20260507204538 23 0 0.0 1.6 0.00 3.28 3.28 91 1007.0
20260507204023 23 0 0.0 1.6 0.00 3.28 3.28 89 1006.9
20260507203519 23 0 0.0 1.6 0.00 3.28 3.28 89 1006.9
20260507203039 23 0 0.0 4.8 0.00 3.28 3.28 88 1006.9
20260507202522 24 0 0.0 4.8 0.00 3.28 3.28 87 1006.8
20260507202022 25 0 0.0 1.6 0.00 3.28 3.28 88 1006.8
20260507201541 25 0 0.0 6.4 0.00 3.28 3.28 86 1006.9
20260507201023 25 0 0.0 6.4 0.00 3.28 3.28 87 1006.9
20260507200523 25 0 0.0 6.4 0.00 3.28 3.28 88 1007.0
20260507200038 23 0 1.6 6.4 0.00 3.28 3.28 90 1007.1
20260507195524 23 0 0.0 6.4 0.00 3.28 3.28 92 1007.3
20260507195023 23 0 0.0 6.4 0.00 3.28 3.28 93 1007.3
20260507194533 23 0 0.0 6.4 0.00 3.28 3.28 92 1007.3
20260507194023 23 223 0.0 3.2 0.00 3.28 3.28 92 1007.2